Wind_Speed
7 8 8 9 9 9 9 11 11 11 12 14 14 15 15 16 17 18 19 19 19 19 18 18 19 20 20 19 19 19 19 19 19 18 18 20 20 20 21 22 22 21 21 22
8 8 8 10 11 10 11 12 13 12 13 14 15 16 16 17 18 19 20 20 19 19 19 19 20 21 21 20 19 19 19 19 18 17 18 20 20 19 20 20 20 20 21 22
8 8 9 10 11 11 11 13 14 14 14 15 16 16 17 18 17 19 20 19 19 19 20 20 20 21 20 20 20 20 19 18 18 19 20 20 18 18 18 19 19 20 21 21
8 8 9 9 10 11 12 13 14 15 15 15 16 17 17 17 17 18 19 19 20 20 21 20 21 20 20 20 20 20 19 18 18 19 20 19 18 18 18 19 19 20 20 20
8 9 9 10 10 12 13 14 14 15 15 16 16 17 16 16 17 18 19 19 21 22 21 21 20 20 19 19 20 19 19 19 19 19 19 19 18 17 18 18 19 20 19 19
7 8 9 10 11 12 13 14 14 14 15 15 15 17 16 16 17 18 20 20 20 21 21 21 21 19 19 19 20 20 19 18 18 19 19 19 17 17 17 18 18 18 19 19
8 9 10 11 12 13 13 14 15 15 15 15 16 16 16 17 18 19 20 20 20 21 21 21 20 19 19 19 20 19 17 17 17 17 17 17 17 17 16 17 17 17 17 18
8 9 11 12 13 13 13 13 14 15 16 16 15 15 16 17 18 20 20 20 19 20 20 20 20 19 18 19 18 18 17 16 16 16 16 16 16 16 16 16 16 17 17 18
9 10 11 12 13 13 13 13 14 15 15 16 16 16 16 17 18 19 19 18 18 19 19 19 19 19 19 18 18 18 17 16 16 16 16 16 16 15 16 16 17 18 18 19
10 10 10 11 12 12 12 13 14 15 16 16 16 16 17 17 16 17 18 17 17 18 18 19 18 18 19 18 17 17 17 17 16 16 16 15 15 15 16 16 18 19 19 20
10 10 10 10 11 11 11 12 13 14 15 17 17 16 16 17 17 17 17 16 17 18 18 18 18 18 18 17 16 16 17 16 16 15 14 15 15 15 16 17 18 19 20 20
10 11 10 11 11 11 12 13 14 15 15 16 16 15 15 16 16 17 16 16 17 17 18 18 18 18 17 16 15 15 16 15 15 15 15 15 15 16 17 18 19 20 20 19
12 12 12 12 12 12 13 13 14 14 15 15 16 14 14 15 16 17 16 16 17 17 18 18 18 17 16 15 15 15 15 15 15 15 16 17 17 18 19 19 20 20 20 19
14 14 13 13 13 13 13 13 14 14 15 15 15 14 15 15 16 16 16 16 16 17 18 18 17 15 15 16 16 15 15 16 17 18 18 18 19 19 20 20 20 19 19 19
15 15 14 13 14 14 14 14 15 15 15 16 16 15 15 16 16 17 16 16 17 17 17 17 16 15 15 15 16 16 16 17 18 19 20 20 20 21 21 21 20 19 18 18
15 15 15 15 15 15 14 14 15 15 16 16 15 16 16 17 17 17 17 16 16 16 16 16 16 16 16 16 17 17 17 17 18 20 21 21 21 21 20 19 19 18 18 17
16 16 16 16 16 16 15 15 15 16 16 16 16 16 17 17 17 17 17 16 16 16 16 16 16 16 17 17 18 18 19 19 20 21 22 22 21 20 19 19 19 18 18 18
17 17 17 17 16 16 15 15 15 16 16 17 17 17 17 17 17 17 17 17 16 16 16 16 16 16 17 17 18 19 19 20 21 21 21 20 20 19 18 19 19 19 18 18
18 18 18 18 18 18 17 16 17 18 18 17 17 18 18 18 18 17 17 17 16 16 16 17 17 18 18 18 18 19 20 21 21 21 21 20 20 19 19 20 20 20 19 19
20 20 20 20 19 19 19 18 18 19 18 18 18 18 18 18 18 17 16 16 16 16 16 17 18 19 19 19 19 20 21 21 21 21 21 21 20 20 20 20 20 20 19 19
21 20 20 20 20 20 19 19 20 19 19 18 18 18 19 19 17 16 16 16 16 17 17 18 18 19 19 19 20 20 21 21 21 21 21 20 20 21 21 21 21 20 20 20
21 21 21 20 21 21 20 19 19 19 19 19 19 18 18 17 17 16 16 17 17 18 18 18 19 19 20 20 20 21 21 21 21 20 20 20 21 22 22 22 21 20 20 20
23 22 22 22 22 21 20 20 20 20 20 19 19 19 18 18 17 17 17 17 18 18 19 19 20 21 21 21 21 22 22 21 20 20 21 21 21 22 23 23 22 21 20 20
25 24 24 24 23 23 22 22 21 21 21 20 20 20 20 19 18 18 19 18 18 19 19 20 21 22 22 22 22 22 22 21 20 20 21 21 21 22 22 22 22 21 20 20
27 26 26 25 25 24 24 23 22 22 22 21 21 21 20 20 19 19 19 19 19 20 20 21 22 23 23 23 23 23 22 21 20 20 21 21 21 21 21 22 21 21 21 21
28 27 27 26 26 25 25 25 24 23 23 23 22 22 21 21 20 20 20 21 21 21 22 22 23 23 24 24 24 23 22 20 20 20 20 21 21 21 22 22 22 22 22 22
Wind_Direction
238 243 249 254 256 264 276 290 296 298 302 306 311 312 315 316 319 320 321 320 321 320 316 312 312 313 312 309 307 302 298 294 295 294 291 290 290 288 286 284 284 284 282 279
238 242 252 256 259 266 275 287 292 296 301 306 310 311 315 315 317 319 321 321 321 319 317 311 307 308 307 307 306 305 301 297 295 294 294 295 291 288 288 287 285 285 284 282
243 253 256 260 261 265 275 286 293 300 304 307 310 311 313 315 318 321 322 320 322 321 318 313 311 310 309 310 307 305 300 295 295 295 293 291 294 294 292 288 287 287 286 284
246 251 257 262 264 270 276 285 293 299 304 306 309 311 315 317 320 323 323 320 320 321 321 317 316 316 313 311 310 310 305 302 301 297 292 293 292 294 295 291 289 288 287 286
255 261 264 265 269 272 278 287 293 298 300 301 306 310 318 322 323 324 324 321 321 323 324 323 319 319 317 314 314 313 311 306 303 301 298 295 294 294 292 290 290 289 289 287
263 266 272 277 278 279 284 287 292 294 295 297 303 307 314 319 322 323 325 325 325 327 326 325 324 322 319 317 317 315 315 312 307 302 301 299 298 297 293 290 290 291 289 286
263 269 275 281 285 286 288 288 289 291 292 295 302 306 313 318 320 321 325 327 327 327 326 327 324 323 321 321 321 321 320 317 313 308 306 304 303 300 298 294 294 294 293 291
270 273 277 284 289 292 290 289 291 292 294 297 302 307 313 318 320 322 323 325 326 325 326 327 327 326 327 327 324 326 324 321 321 318 312 308 306 303 301 302 301 300 299 296
277 280 285 291 296 296 295 292 294 295 296 297 302 307 308 313 319 322 326 326 326 326 326 327 329 329 330 332 331 331 329 325 323 321 318 314 310 308 306 307 308 306 303 300
279 284 289 295 296 296 296 298 298 298 298 300 304 307 311 314 319 325 328 329 329 330 330 329 330 330 331 334 336 334 333 332 328 323 320 319 317 314 310 308 307 308 307 304
284 287 290 291 296 299 296 297 300 300 299 302 305 308 314 317 320 324 327 330 331 332 331 331 331 331 332 335 338 336 336 335 332 330 328 325 320 318 315 311 310 309 309 308
285 289 289 290 293 297 296 300 305 306 305 304 307 311 314 318 321 323 326 329 329 330 331 332 333 335 336 339 339 338 340 340 337 334 332 329 326 323 321 317 315 314 313 310
284 288 289 289 292 296 297 300 305 307 304 305 308 313 317 320 322 323 325 327 327 327 330 332 333 335 337 339 339 338 340 341 339 334 332 331 328 325 322 320 318 318 315 313
283 287 289 291 294 295 297 299 303 305 305 306 307 309 313 316 318 320 323 325 328 329 331 332 331 334 334 336 338 337 338 338 336 336 335 332 328 326 323 322 321 318 316 314
284 288 290 291 293 293 294 296 302 304 304 304 307 306 309 312 314 317 320 322 326 330 330 331 332 334 334 333 335 335 333 334 335 335 334 331 327 325 324 323 322 321 317 315
281 286 288 289 290 291 291 294 298 302 303 302 304 305 307 308 311 315 318 320 322 326 328 331 331 331 331 330 330 330 331 331 331 332 331 328 327 325 325 326 326 324 321 319
279 283 286 287 287 287 290 294 297 301 305 303 303 304 304 306 308 312 315 317 319 321 324 327 327 328 328 326 326 328 330 329 329 329 329 329 327 326 328 328 329 327 324 322
277 280 283 286 287 285 291 294 297 299 302 302 303 304 303 305 306 308 312 314 314 316 318 322 322 322 323 324 325 327 328 329 329 329 329 331 331 329 330 330 330 328 325 323
273 276 280 283 285 287 290 295 296 297 300 303 303 304 304 304 304 304 306 309 311 312 314 317 317 317 318 322 323 324 325 327 328 330 331 332 332 332 330 328 327 327 325 324
271 272 275 278 282 286 291 294 297 297 298 301 301 303 304 305 304 303 304 307 308 308 311 313 315 316 316 318 321 323 325 326 327 328 330 330 329 329 329 329 329 329 326 324
269 270 272 275 279 284 289 293 295 296 298 298 300 302 303 304 304 302 302 304 306 307 309 311 314 316 318 319 320 322 324 324 324 324 327 327 328 330 330 330 331 330 328 326
267 269 271 274 277 281 286 289 291 294 295 296 298 301 303 305 306 302 301 302 305 308 310 312 314 315 317 319 320 320 321 323 323 323 324 325 328 330 330 330 329 327 326 326
265 267 269 272 275 279 282 285 287 290 293 295 296 296 298 301 303 301 299 301 304 307 309 310 312 314 316 316 317 317 318 320 322 323 324 326 328 329 329 330 330 327 325 326
265 266 268 269 271 274 278 280 283 287 290 292 294 294 296 297 297 299 298 298 301 304 305 308 310 312 314 314 315 316 317 318 319 320 322 324 326 327 327 328 329 328 326 325
263 265 266 267 270 271 274 277 280 283 286 288 291 292 292 292 292 295 296 295 297 300 302 305 307 309 311 313 314 314 316 315 316 318 320 323 324 326 326 327 328 328 327 325
262 263 265 266 268 271 273 274 276 279 281 284 286 287 288 288 289 291 293 295 296 298 300 304 307 308 310 312 313 313 314 313 314 316 319 321 323 324 326 326 327 328 328 327
Height
5850 5851 5851 5851 5851 5851 5850 5850 5849 5848 5847 5845 5843 5842 5840 5838 5835 5834 5831 5828 5825 5822 5820 5817 5814 5812 5809 5807 5805 5803 5801 5800 5798 5797 5796 5795 5794 5792 5791 5790 5790 5789 5788 5788
5849 5849 5849 5849 5849 5849 5848 5847 5847 5846 5844 5843 5841 5839 5837 5835 5833 5831 5829 5825 5823 5820 5817 5814 5811 5808 5806 5803 5801 5799 5797 5795 5793 5791 5790 5789 5788 5786 5785 5785 5784 5783 5782 5781
5846 5848 5847 5847 5847 5846 5846 5845 5845 5844 5842 5840 5838 5837 5835 5833 5830 5828 5826 5823 5820 5817 5814 5811 5807 5804 5801 5799 5796 5794 5792 5790 5788 5786 5785 5783 5782 5781 5780 5779 5778 5778 5776 5774
5844 5845 5845 5845 5844 5844 5844 5843 5842 5841 5839 5838 5836 5834 5833 5830 5828 5826 5823 5820 5817 5814 5811 5807 5804 5800 5797 5794 5792 5789 5787 5785 5783 5781 5779 5778 5777 5776 5775 5774 5773 5772 5770 5769
5843 5843 5842 5842 5843 5842 5842 5841 5840 5838 5837 5835 5834 5832 5831 5828 5826 5823 5820 5817 5814 5811 5807 5804 5800 5797 5793 5790 5787 5784 5781 5780 5778 5776 5774 5773 5772 5771 5769 5768 5767 5766 5764 5763
5841 5841 5840 5840 5840 5840 5839 5839 5837 5836 5835 5833 5832 5830 5828 5826 5823 5821 5818 5814 5811 5807 5804 5800 5797 5793 5790 5787 5784 5780 5778 5775 5773 5771 5770 5769 5767 5765 5764 5763 5762 5761 5759 5758
5840 5839 5839 5838 5838 5838 5837 5837 5835 5833 5832 5831 5830 5827 5827 5824 5821 5818 5815 5812 5808 5805 5801 5797 5793 5790 5787 5783 5780 5777 5774 5771 5768 5766 5765 5764 5762 5761 5760 5758 5757 5756 5755 5753
5838 5838 5838 5837 5837 5836 5835 5834 5833 5832 5830 5829 5827 5825 5825 5821 5818 5815 5812 5809 5806 5802 5798 5794 5791 5788 5784 5780 5777 5774 5771 5768 5766 5763 5762 5760 5758 5757 5756 5754 5753 5752 5750 5749
5836 5836 5836 5835 5834 5833 5832 5831 5830 5829 5827 5825 5824 5823 5821 5819 5816 5813 5810 5806 5803 5800 5796 5793 5789 5785 5781 5778 5775 5771 5768 5766 5763 5761 5759 5757 5755 5754 5752 5751 5749 5747 5746 5744
5834 5834 5834 5833 5832 5831 5830 5829 5827 5826 5824 5822 5822 5820 5819 5816 5813 5810 5807 5804 5801 5797 5794 5791 5787 5784 5780 5776 5773 5769 5766 5763 5760 5758 5756 5754 5753 5751 5749 5747 5745 5743 5741 5739
5832 5832 5832 5831 5830 5829 5828 5827 5825 5823 5822 5820 5818 5820 5816 5813 5811 5808 5805 5802 5798 5795 5792 5789 5785 5782 5778 5774 5771 5768 5765 5762 5759 5757 5754 5752 5750 5748 5745 5743 5741 5739 5736 5734
5830 5830 5829 5829 5828 5826 5825 5824 5823 5822 5820 5817 5816 5818 5813 5810 5808 5805 5802 5799 5796 5793 5790 5787 5783 5780 5776 5773 5770 5767 5764 5761 5758 5755 5752 5750 5747 5745 5743 5740 5737 5734 5732 5729
5828 5828 5827 5826 5827 5825 5823 5821 5820 5819 5817 5815 5813 5815 5810 5807 5805 5802 5800 5797 5794 5791 5788 5785 5781 5778 5775 5772 5769 5766 5763 5760 5756 5753 5750 5748 5745 5742 5740 5737 5733 5730 5727 5724
5825 5824 5824 5824 5822 5821 5820 5819 5817 5816 5814 5812 5811 5810 5808 5805 5803 5800 5797 5794 5792 5789 5786 5782 5779 5777 5774 5771 5768 5765 5762 5759 5755 5752 5748 5745 5742 5739 5736 5732 5729 5725 5722 5720
5822 5821 5820 5820 5819 5818 5817 5816 5814 5813 5811 5809 5808 5806 5805 5802 5800 5797 5795 5792 5789 5786 5784 5781 5777 5775 5772 5769 5766 5763 5760 5757 5753 5750 5746 5743 5739 5735 5732 5728 5724 5721 5718 5715
5819 5818 5817 5817 5816 5814 5814 5813 5811 5810 5808 5806 5805 5803 5801 5799 5796 5794 5792 5789 5787 5784 5781 5778 5775 5773 5770 5767 5764 5761 5758 5755 5751 5747 5744 5739 5736 5732 5728 5724 5721 5717 5714 5712
5815 5814 5814 5813 5812 5811 5810 5810 5808 5807 5805 5804 5802 5801 5798 5796 5793 5791 5789 5786 5784 5782 5779 5776 5773 5770 5768 5765 5762 5759 5755 5752 5749 5745 5741 5736 5732 5729 5725 5721 5718 5715 5711 5708
5811 5811 5810 5809 5809 5807 5809 5806 5805 5803 5802 5800 5798 5796 5794 5792 5790 5788 5786 5783 5781 5779 5776 5773 5771 5768 5765 5762 5759 5756 5753 5749 5746 5742 5738 5734 5730 5726 5722 5719 5715 5712 5708 5705
5807 5806 5805 5805 5803 5803 5804 5802 5801 5800 5798 5797 5795 5793 5791 5789 5787 5785 5783 5780 5778 5775 5773 5771 5768 5765 5762 5759 5756 5753 5750 5746 5742 5739 5735 5731 5727 5723 5720 5716 5712 5709 5705 5702
5802 5801 5801 5800 5799 5799 5800 5798 5797 5796 5795 5793 5791 5789 5787 5785 5783 5782 5779 5777 5775 5772 5770 5767 5765 5762 5759 5756 5753 5750 5746 5743 5739 5735 5732 5728 5724 5721 5717 5713 5709 5706 5702 5699
5796 5796 5795 5795 5794 5794 5795 5793 5793 5793 5792 5789 5787 5785 5783 5781 5779 5778 5775 5773 5771 5769 5766 5764 5761 5759 5756 5753 5750 5746 5743 5740 5736 5732 5729 5725 5722 5718 5714 5710 5706 5702 5699 5695
5790 5790 5790 5790 5789 5791 5789 5788 5788 5787 5786 5784 5782 5781 5779 5777 5775 5773 5771 5770 5767 5765 5762 5760 5758 5755 5752 5749 5746 5743 5740 5736 5733 5729 5726 5722 5719 5715 5711 5707 5703 5699 5695 5692
5783 5784 5784 5785 5786 5785 5784 5783 5783 5781 5780 5779 5777 5776 5774 5773 5771 5769 5767 5765 5763 5761 5759 5756 5754 5751 5748 5745 5742 5739 5736 5732 5729 5726 5722 5719 5715 5711 5707 5703 5699 5695 5692 5688
5776 5777 5778 5778 5778 5778 5778 5777 5777 5776 5775 5774 5772 5771 5769 5768 5766 5765 5763 5761 5759 5757 5755 5753 5750 5747 5744 5741 5738 5734 5731 5728 5724 5721 5718 5715 5711 5708 5704 5700 5696 5692 5688 5685
5769 5769 5770 5771 5772 5772 5772 5771 5771 5770 5769 5768 5767 5766 5764 5763 5761 5760 5758 5756 5754 5752 5750 5748 5745 5742 5739 5736 5733 5730 5726 5723 5720 5717 5714 5711 5707 5704 5700 5696 5692 5688 5685 5681
5761 5762 5763 5764 5765 5765 5765 5765 5764 5764 5763 5762 5761 5760 5759 5757 5756 5755 5753 5751 5749 5747 5745 5742 5739 5737 5734 5731 5728 5725 5721 5719 5716 5713 5710 5707 5703 5700 5696 5692 5689 5685 5681 5677